Location: Proctor
(47.8934°N, 114.3048°W)
Time: 22:15:02
(UTC+00:00)

Tiros 1 despin weight - Pass Details

Date: 27 June 2024
Orbit: 576 x 620 km, 48.2° (Epoch: 19 July)

Event Time Altitude Azimuth Distance (km) Brightness Sun altitude
Rises 20:10:06 0° 266° (W) 2,888 ? 64.7°
Reaches altitude 10° 20:12:25 10° 267° (W) 1,985 ? 64.6°
Maximum altitude 20:17:00 86° 357° (N) 628 ? 64.3°
Drops below altitude 10° 20:21:35 10° 86° (E) 1,987 ? 64.1°
Sets 20:23:54 0° 87° (E) 2,891 ? 63.9°
